Flag for India Weather past 2 weeks in Chhindwara, Madhya Pradesh, India

Now
81 °F

Partly cloudy.


Feels Like: 85 °F
Forecast: 74 / 88 °F
Wind: No wind

Location: Nagpur Sonegaon

Current Time: Jul 7, 2015 at 1:35:14 AM

Latest Report: Jul 7, 2015 at 1:10 AM


Visibility: 2 mi

Pressure: 29.62 "Hg (27.39 "Hg at 687m altitude)

Humidity: 74%

Dew point: 72 °F

Location of ChhindwaraLocation

Historic Weather in Chhindwara — Graph

°F

Chhindwara temperature yesterday

Maximum temperature yesterday: 93 °F (at 1:40 PM)
Minimum temperature yesterday: 79 °F (at 5:40 AM)
Average temperature yesterday: 87 °F

Past Weeks' High & Low Weather Summary

 TemperatureHumidityPressure
High100 °F (Jun 30, 3:40 PM)100% (Jun 22, 3:40 AM)29.83 "Hg (Jun 22, 3:40 AM)
Low75 °F (Jul 1, 4:10 AM)41% (Jul 4, 6:10 PM)29.47 "Hg (Jun 22, 3:40 AM)
Average86 °F69%29.67 "Hg
* Reported Jun 21 11:40 PM — Jul 6 11:40 PM, Chhindwara, Weather by CustomWeather, © 2015

Note: Actual official high and low records may vary slightly from our data, if they occured in-between our weather recording intervals... More about our weather records

Advertising

Chhindwara weather history for previous 24 hours

 ConditionsComfort  
Time TempWeatherWind HumidityBarometerVisibility
11:40 PM
Mon, Jul 6
81 °FPassing clouds.No wind70%29.62 "Hg2 mi
11:10 PM82 °FPassing clouds.No wind66%29.62 "Hg2 mi
10:40 PM82 °FPassing clouds.No wind66%29.62 "Hg2 mi
10:10 PM82 °FPassing clouds.No wind66%29.65 "Hg2 mi
8:40 PM88 °FPassing clouds.No wind55%29.62 "Hg3 mi
8:10 PM86 °FPassing clouds.2 mph55%29.62 "Hg3 mi
7:40 PM88 °FPassing clouds.3 mph52%29.62 "Hg3 mi
7:10 PM90 °FScattered clouds.7 mph49%29.59 "Hg3 mi
6:40 PM90 °FScattered clouds.6 mph49%29.59 "Hg3 mi
5:40 PM91 °FScattered clouds.9 mph49%29.59 "Hg3 mi
3:10 PM93 °FBroken clouds.12 mph47%29.62 "Hg4 mi
2:40 PM93 °FScattered clouds.12 mph47%29.62 "Hg4 mi
2:10 PM93 °FScattered clouds.12 mph47%29.65 "Hg4 mi
1:40 PM93 °FScattered clouds.13 mph47%29.65 "Hg4 mi
1:10 PM91 °FScattered clouds.16 mph49%29.65 "Hg4 mi
12:40 PM91 °FScattered clouds.13 mph49%29.68 "Hg4 mi
12:10 PM91 °FScattered clouds.15 mph52%29.68 "Hg4 mi
11:40 AM91 °FScattered clouds.10 mph49%29.68 "Hg4 mi
11:10 AM91 °FScattered clouds.15 mph52%29.71 "Hg4 mi
10:40 AM90 °FScattered clouds.12 mph52%29.71 "Hg4 mi
10:10 AM88 °FScattered clouds.17 mph55%29.71 "Hg4 mi
9:40 AM86 °FScattered clouds.15 mph59%29.71 "Hg4 mi
9:10 AM84 °FScattered clouds.12 mph62%29.71 "Hg4 mi
8:40 AM84 °FScattered clouds.13 mph62%29.71 "Hg4 mi
8:10 AM84 °FScattered clouds.13 mph58%29.68 "Hg4 mi
7:40 AM82 °FScattered clouds.13 mph62%29.68 "Hg3 mi
7:10 AM81 °FHaze.7 mph66%29.68 "Hg3 mi
6:40 AM81 °FHaze.7 mph62%29.68 "Hg3 mi
5:40 AM79 °FPassing clouds.6 mph65%29.65 "Hg3 mi
3:10 AM82 °FHaze.7 mph58%29.65 "Hg3 mi
2:40 AM82 °FHaze.7 mph58%29.65 "Hg3 mi
2:10 AM82 °FHaze.6 mph62%29.62 "Hg3 mi
1:40 AM84 °FHaze.6 mph58%29.62 "Hg3 mi
1:10 AM84 °FHaze.5 mph58%29.65 "Hg3 mi
Weather by CustomWeather, © 2015

See weather overviewHow to use our weather pages